TIANWANG 1B (TW-1B)
1 40927U 15051C   19353.37405576  .00010443  00000-0  14120-3 0  9995
2 40927  97.1150  38.4945 0009013  66.7214  59.5774 15.57873903238579
TIANWANG 1A (TW-1A)
1 40928U 15051D   19353.57176194  .00002175  00000-0  53409-4 0  9996
2 40928  97.1280  20.7216 0012316 119.7907  31.1211 15.41681799237492
LAPAN A2
1 40931U 15052B   19352.99822069  .00000535  00000-0 -14603-4 0  9997
2 40931   5.9937 189.3915 0013188 231.8732 128.1161 14.76621044228394
LQSAT
1 40958U 15057A   19353.16686223  .00000006  00000-0  85464-5 0  9997
2 40958  97.8787  57.2010 0018446  16.8560 343.3257 14.73100681225814
CHUBUSAT 2
1 41338U 16012B   19353.46546460  .00000283  00000-0  15236-4 0  9999
2 41338  31.0042  56.8083 0013689 123.4831 236.7114 15.00221287210533
CHUBUSAT 3
1 41339U 16012C   19353.41374954  .00000264  00000-0  13752-4 0  9992
2 41339  31.0123  54.9950 0013393 129.5814 230.6004 15.00391440210525
OUFTI-1
1 41458U 16025C   19353.23273424  .00001616  00000-0  84469-4 0  9993
2 41458  98.0998  89.4320 0166379  99.7731 262.2328 15.06319209200194
E-STAR-2
1 41459U 16025D   19353.49401188  .00001308  00000-0  69695-4 0  9994
2 41459  98.0991  89.2551 0167623 100.5951 261.4210 15.05920636200204
AAUSAT 4
1 41460U 16025E   19353.23059277  .00001676  00000-0  86002-4 0  9995
2 41460  98.0967  90.7169 0157161  92.1782 269.7452 15.08004600200324
NUSAT 1
1 41557U 16033B   19353.48156132  .00001014  00000-0  40249-4 0  9995
2 41557  97.4123  79.8938 0013962  15.2736 344.8922 15.27606512198149
BEESAT 4
1 41619U 16040W   19353.44297935  .00001187  00000-0  52518-4 0  9998
2 41619  97.3459  52.0485 0012908  97.0110 263.2595 15.23548327181835
PRATHAM
1 41783U 16059A   19353.44000922  .00000046  00000-0  18041-4 0  9994
2 41783  98.0445  48.7291 0033994 164.0450 196.1831 14.63027192172413
ALSAT 1N
1 41789U 16059G   19353.40824805  .00000082  00000-0  24425-4 0  9993
2 41789  98.0473  51.1021 0029066 152.4117 207.8637 14.64284319172539
NAYIF 1
1 42017U 17008BX  19353.39961327  .00001337  00000-0  54821-4 0  9999
2 42017  97.3837  58.4326 0004888 231.9307 128.1491 15.25987609157937
MAX VALIER SAT
1 42778U 17036P   19353.46613037  .00000795  00000-0  37478-4 0  9990
2 42778  97.3318  46.8645 0010801 302.7238  57.2957 15.22307138138198
